STARLINK-2576 (48400 NORAD) Tracking and Keplerian Element Data

This shows tracking and keplerian element data for the satellite.

Feedback or suggestion? Click here.




ElementValue
Catalog48400
NameSTARLINK-2576
Epoch Orbit366
Epoch Day214.91667824
Epoch Year2021
RAAN322.429
Inclination53.0515
Eccentricity0.0001205
Argument of Perigee76.9418
Mean Anonmoly323.4788
Mean Motion15.10621877
Decay Rate-0.01142191
L11 48400U 21038AZ 21214.91667824 -.01142191 00000-0 -74188-1 0 9993
L22 48400 53.0515 322.4290 0001205 76.9418 323.4788 15.10621877 3660

Live tracking and technical data element details for STARLINK-2576 (NORAD 48400). STARLINK-2576 can be tracked NOW for your location showing map with azimuth and elevation plus other details from your city location.

Track the satellite on the map from your city or location and see movement details for azimuth, elevation, latitude, longitude, range, height, and movement on the map or in text.







IsCatalogInMostPopularTable: catalog: 48400, numindb: 34
Update: records affected: 1



GetName: 48400 STARLINK-2576

Hit Count: updated at: Tue, 03 Aug 2021 20:39:32 GMT